Location: Newark
(30.1000°N, 109.4667°E)
Time: 21:53:23
(UTC+00:00)

SR - Pass Details

Date: 20 February 2020
Orbit: 578 x 878 km, 66.7° (Epoch: 06 April)

Event Time Altitude Azimuth Distance (km) Brightness Sun altitude
Rises 16:30:11 0° 356° (N) 3,236 - -69.9°
Reaches altitude 10° 16:34:00 10° 23° (NNE) 2,231 - -70.2°
Maximum altitude 16:36:24 13° 51° (NE) 1,965 - -70.3°
Drops below altitude 10° 16:38:42 10° 79° (E) 2,131 - -70.4°
Sets 16:42:10 0° 107° (ESE) 2,972 - -70.6°
